カタログに戻る

COSMOS 1275 DEB

運用中PO
NORAD 13073·DEBRIS·🇷🇺 Russia

打ち上げ Jun 4, 1981 から Plesetsk Cosmodrome

Loading…

次のパス (今後24時間)

TLE

最新Source: Space-Track

元期: Sep 14, 2026, 22:08 UTC

1 13073U 81053EZ  26257.92282108  .00000096  00000-0  86430-4 0  9995
2 13073  82.9358 232.9925 0086311 214.2831 174.5342 13.72456357257646

AllMySatでCOSMOS 1275 DEBをリアルタイム追跡

Download on the App Store